TimeCDT,TemperatureF,Dew PointF,Humidity,Sea Level PressureIn,VisibilityMPH,Wind Direction,Wind SpeedMPH,Gust SpeedMPH,PrecipitationIn,Events,Conditions,WindDirDegrees,DateUTC
12:54 AM,46.9,37.0,68,30.18,10.0,North,15.0,21.9,N/A,,Overcast,10,2012-10-27 05:54:00
1:54 AM,46.9,36.0,66,30.17,10.0,North,16.1,21.9,N/A,,Overcast,10,2012-10-27 06:54:00
2:54 AM,46.0,35.1,66,30.16,10.0,North,18.4,24.2,N/A,,Overcast,10,2012-10-27 07:54:00
3:54 AM,45.0,35.1,68,30.15,10.0,NNE,16.1,23.0,N/A,,Overcast,20,2012-10-27 08:54:00
4:54 AM,45.0,35.1,68,30.14,10.0,NNE,12.7,-,N/A,,Overcast,20,2012-10-27 09:54:00
5:51 AM,44.6,33.8,66,30.15,10.0,North,10.4,-,N/A,,Partly Cloudy,10,2012-10-27 10:51:00
5:54 AM,43.0,34.0,71,30.15,10.0,North,11.5,-,N/A,,Partly Cloudy,360,2012-10-27 10:54:00
6:54 AM,41.0,34.0,76,30.17,10.0,North,11.5,-,N/A,,Partly Cloudy,10,2012-10-27 11:54:00
7:54 AM,41.0,34.0,76,30.17,10.0,North,10.4,-,N/A,,Partly Cloudy,10,2012-10-27 12:54:00
8:54 AM,44.6,35.6,71,30.18,10.0,North,11.5,-,N/A,,Partly Cloudy,10,2012-10-27 13:54:00
9:54 AM,46.4,35.6,66,30.18,10.0,North,13.8,23.0,N/A,,Partly Cloudy,10,2012-10-27 14:54:00
10:54 AM,50.0,36.0,59,30.18,10.0,North,12.7,-,N/A,,Partly Cloudy,350,2012-10-27 15:54:00
12:54 PM,54.0,37.9,55,30.14,10.0,North,9.2,17.3,N/A,,Partly Cloudy,350,2012-10-27 17:54:00
1:54 PM,55.9,36.0,47,30.11,10.0,NNE,12.7,21.9,N/A,,Partly Cloudy,20,2012-10-27 18:54:00
2:54 PM,55.9,36.0,47,30.10,10.0,NNW,12.7,20.7,N/A,,Partly Cloudy,340,2012-10-27 19:54:00
3:54 PM,55.9,34.0,44,30.09,10.0,North,17.3,-,N/A,,Partly Cloudy,350,2012-10-27 20:54:00
4:54 PM,55.0,34.0,45,30.09,10.0,North,15.0,21.9,N/A,,Partly Cloudy,350,2012-10-27 21:54:00
5:54 PM,52.0,33.1,49,30.10,10.0,North,15.0,-,N/A,,Clear,360,2012-10-27 22:54:00
6:54 PM,50.0,33.1,52,30.12,10.0,North,10.4,-,N/A,,Clear,360,2012-10-27 23:54:00
7:54 PM,48.9,33.1,54,30.12,10.0,North,11.5,-,N/A,,Clear,360,2012-10-28 00:54:00
8:54 PM,48.0,34.0,58,30.12,10.0,North,9.2,-,N/A,,Clear,350,2012-10-28 01:54:00
9:54 PM,48.0,35.1,61,30.13,10.0,North,10.4,19.6,N/A,,Clear,360,2012-10-28 02:54:00
10:54 PM,46.4,35.6,66,30.13,10.0,North,9.2,-,N/A,,Clear,360,2012-10-28 03:54:00
11:54 PM,46.0,35.1,66,30.13,10.0,North,9.2,-,N/A,,Partly Cloudy,350,2012-10-28 04:54:00